TimeCDT,TemperatureF,Dew PointF,Humidity,Sea Level PressureIn,VisibilityMPH,Wind Direction,Wind SpeedMPH,Gust SpeedMPH,PrecipitationIn,Events,Conditions,WindDirDegrees,DateUTC
12:53 AM,57.9,55.9,93,30.04,9.0,Calm,Calm,-,N/A,,Clear,0,2012-10-25 05:53:00
1:53 AM,57.9,55.9,93,30.03,7.0,Calm,Calm,-,N/A,,Clear,0,2012-10-25 06:53:00
2:53 AM,55.9,54.0,93,30.02,8.0,Calm,Calm,-,N/A,,Clear,0,2012-10-25 07:53:00
3:53 AM,55.9,54.0,93,30.01,8.0,NE,3.5,-,N/A,,Clear,50,2012-10-25 08:53:00
4:53 AM,55.0,53.1,93,30.02,8.0,Calm,Calm,-,N/A,,Clear,0,2012-10-25 09:53:00
5:53 AM,55.0,53.1,93,30.03,6.0,Calm,Calm,-,N/A,,Clear,0,2012-10-25 10:53:00
6:53 AM,53.1,52.0,96,30.04,8.0,Calm,Calm,-,N/A,,Clear,0,2012-10-25 11:53:00
7:53 AM,57.0,55.0,93,30.05,7.0,Calm,Calm,-,N/A,,Clear,0,2012-10-25 12:53:00
9:53 AM,66.9,61.0,81,30.07,10.0,Calm,Calm,-,N/A,,Clear,0,2012-10-25 14:53:00
10:53 AM,73.9,62.1,66,30.07,10.0,Calm,Calm,-,N/A,,Clear,0,2012-10-25 15:53:00
11:53 AM,77.0,63.0,62,30.06,10.0,Calm,Calm,-,N/A,,Clear,0,2012-10-25 16:53:00
12:53 PM,78.1,62.1,58,30.03,10.0,Calm,Calm,-,N/A,,Scattered Clouds,0,2012-10-25 17:53:00
1:53 PM,80.1,60.1,50,30.00,10.0,ESE,4.6,-,N/A,,Mostly Cloudy,120,2012-10-25 18:53:00
2:53 PM,80.1,59.0,48,29.99,10.0,East,3.5,-,N/A,,Partly Cloudy,90,2012-10-25 19:53:00
3:53 PM,81.0,59.0,47,29.98,10.0,SSE,4.6,-,N/A,,Clear,150,2012-10-25 20:53:00
4:53 PM,80.1,59.0,48,29.98,10.0,SE,5.8,-,N/A,,Partly Cloudy,140,2012-10-25 21:53:00
5:53 PM,73.9,61.0,64,29.99,10.0,ESE,4.6,-,N/A,,Clear,120,2012-10-25 22:53:00
6:53 PM,69.1,62.1,78,29.99,10.0,Calm,Calm,-,N/A,,Clear,0,2012-10-25 23:53:00
7:53 PM,66.0,61.0,84,30.00,10.0,Calm,Calm,-,N/A,,Clear,0,2012-10-26 00:53:00
8:53 PM,64.0,61.0,90,30.01,10.0,NE,3.5,-,N/A,,Clear,50,2012-10-26 01:53:00
9:53 PM,63.0,61.0,93,30.01,9.0,Calm,Calm,-,N/A,,Partly Cloudy,0,2012-10-26 02:53:00
10:53 PM,62.1,60.1,93,30.00,9.0,Calm,Calm,-,N/A,,Clear,0,2012-10-26 03:53:00
11:53 PM,61.0,59.0,93,29.99,8.0,Calm,Calm,-,N/A,,Clear,0,2012-10-26 04:53:00